This demonstration page uses our WeatherBlox Daily Observations layout. Learn more.

Left ArrowRight Arrow

38.89511, -77.03637

Hourly Observations for May 28, 2018

Temp ( °F °C ) Dew Point ( °F °C ) Humidity (%) Winds ( mph kmh ) Pressure ( in mb ) Visibility ( mi km ) Precip ( " mm )
12:52 am 00:52 Cloudy 68 20 65 18.3 90 90 NE 10 17 30.04 1017 10 16 0.00 0.03
1:52 am 01:52 Cloudy 67 19.4 64 17.8 91 91 ENE 10 17 30.03 1017 10 16 0.00 0.00
2:52 am 02:52 Cloudy 66 18.9 62 16.7 87 87 E 9 15 30.01 1016 10 16 0.00 0.00
3:52 am 03:52 Cloudy with Mist and Fog 65 18.3 62 16.7 90 90 ENE 12 19 30.01 1016 6 10 0.00 0.00
4:11 am 04:11 Cloudy with Drizzle 65 18.3 62 16.7 90 90 NE 14 22 30.03 1017 4 6 0.00 0.03
4:52 am 04:52 Cloudy with Drizzle 65 18.3 62 16.7 90 90 ENE 12 19 30.03 1017 3 5 0.00 0.03
5:22 am 05:22 Cloudy 65 18.3 61 16.1 87 87 ENE 13 20 30.03 1017 10 16 0.00 0.03
5:52 am 05:52 Cloudy 65 18.3 61 16.1 87 87 NE 14 22 30.04 1017 10 16 0.00 0.03
6:19 am 06:19 Cloudy with Mist and Fog 65 18.3 61 16.1 87 87 ENE 10 17 30.06 1018 4 6 0.00 0.00
6:52 am 06:52 Cloudy with Drizzle 64 17.8 61 16.1 90 90 ENE 8 13 30.05 1018 3 5 0.00 0.03
7:17 am 07:17 Cloudy with Drizzle 64 17.8 61 16.1 90 90 ENE 8 13 30.06 1018 2 3 0.00 0.03
7:52 am 07:52 Cloudy with Drizzle 64 17.8 61 16.1 90 90 ENE 8 13 30.05 1018 2 3 0.00 0.03
8:05 am 08:05 Cloudy with Drizzle 64 17.8 62 16.7 93 93 E 5 7 30.06 1018 4 6 0.01 0.25
8:23 am 08:23 Cloudy 65 18.3 61 16.1 87 87 ENE 5 7 30.06 1018 10 16 0.01 0.25
8:34 am 08:34 Cloudy 65 18.3 61 16.1 87 87 E 6 9 30.06 1018 10 16 0.01 0.25
8:52 am 08:52 Cloudy 65 18.3 61 16.1 87 87 ENE 7 11 30.06 1018 10 16 0.01 0.25
9:52 am 09:52 Cloudy 66 18.9 62 16.7 87 87 ENE 7 11 30.07 1018 10 16 0.00 0.00
10:52 am 10:52 Cloudy 66 18.9 62 16.7 87 87 NE 9 15 30.08 1019 10 16 0.00 0.00
10:56 am 10:56 Cloudy with Mist and Fog 66 18.9 62 16.7 87 87 NE 9 15 30.09 1019 4 6 0.00 0.00
11:18 am 11:18 Cloudy 65 18.3 61 16.1 87 87 ENE 8 13 30.09 1019 7 11 0.00 0.00
11:28 am 11:28 Cloudy with Mist and Fog 66 18.9 62 16.7 87 87 NE 7 11 30.09 1019 5 8 0.00 0.00
11:52 am 11:52 Cloudy 67 19.4 62 16.7 84 84 NE 7 11 30.09 1019 9 14 0.00 0.00
12:22 pm 12:22 Cloudy 67 19.4 63 17.2 87 87 VRB 7 11 30.09 1019 10 16 0.00 0.00
12:52 pm 12:52 Cloudy 68 20 62 16.7 81 81 ENE 6 9 30.09 1019 10 16 0.00 0.00
1:18 pm 13:18 Cloudy 68 20 62 16.7 81 81 NE 8 13 30.09 1019 10 16 0.00 0.00
1:52 pm 13:52 Cloudy 68 20 62 16.7 81 81 E 7 11 30.09 1019 10 16 0.00 0.00
2:52 pm 14:52 Cloudy 68 20 63 17.2 84 84 E 7 11 30.07 1018 10 16 0.00 0.00
3:52 pm 15:52 Cloudy 70 21.1 63 17.2 79 79 NNE 5 7 30.06 1018 10 16 0.00 0.00
4:44 pm 16:44 Cloudy 71 21.7 64 17.8 79 79 S 5 7 30.03 1017 10 16 0.00 0.00
4:52 pm 16:52 Cloudy 71 21.7 64 17.8 79 79 VRB 7 11 30.04 1017 10 16 0.00 0.00
5:06 pm 17:06 Cloudy 71 21.7 64 17.8 79 79 S 8 13 30.03 1017 10 16 0.00 0.00
5:52 pm 17:52 Cloudy 70 21.1 64 17.8 82 82 SSE 3 6 30.04 1017 10 16 0.00 0.00
6:52 pm 18:52 Cloudy 70 21.1 64 17.8 82 82 SSE 6 9 30.04 1017 10 16 0.00 0.00
7:22 pm 19:22 Cloudy 69 20.6 65 18.3 87 87 S 7 11 30.03 1017 9 14 0.00 0.00
7:52 pm 19:52 Cloudy 70 21.1 65 18.3 84 84 SSE 7 11 30.04 1017 10 16 0.00 0.00
8:52 pm 20:52 Cloudy 69 20.6 65 18.3 87 87 SE 6 9 30.03 1017 10 16 0.00 0.00
9:19 pm 21:19 Cloudy 70 21.1 65 18.3 84 84 SE 5 7 30.03 1017 10 16 0.00 0.00
9:52 pm 21:52 Cloudy 70 21.1 65 18.3 84 84 ESE 3 6 30.04 1017 10 16 0.00 0.00
9:54 pm 21:54 Cloudy 70 21.1 65 18.3 84 84 ESE 3 6 30.03 1017 10 16 0.00 0.00
10:47 pm 22:47 Cloudy 70 21 64 18 83 83 SSE 5 7 30.03 1017 7 11 0.00 0.00
10:52 pm 22:52 Cloudy 69 20.6 65 18.3 87 87 SSE 5 7 30.04 1017 7 11 0.00 0.00
11:52 pm 23:52 Cloudy with Mist and Fog 69 20.6 66 18.9 90 90 SE 3 6 30.03 1017 4 6 0.00 0.00

Powered by AerisWeather